Theta_e
318 318 318 316 316 321 322 323 327 328 327 321 319 320 317 321 323 319 320 319 319 320 320 321 320 320 321 326 326 327 329 330 331 333 338 335 331 331 332 331 331 330 331 332 332 333 333 334 334 334 333 332 331 331 329 323 322 321 316 315 314 313 310 308 309 309 308 310 315 320 322 323 324 326 328 323 322 327 328 325 324 329 329 325 321 319 317 316 316 315 315 314 313 312 313 313 312
318 318 318 316 318 323 322 325 332 329 327 320 318 321 317 321 323 320 323 320 320 320 321 323 322 324 324 324 325 325 329 331 329 333 337 332 331 332 331 331 331 330 331 332 332 332 333 333 333 333 333 331 330 330 328 323 322 321 317 314 313 313 311 309 309 309 308 308 312 317 320 321 321 325 328 324 325 327 328 326 321 322 322 317 313 313 313 311 310 310 311 311 311 311 312 312 312
318 318 316 317 322 325 324 327 332 328 325 320 317 319 320 323 323 322 322 318 320 320 321 322 322 324 324 328 330 328 331 335 334 334 335 332 331 332 332 332 330 331 331 332 332 331 332 332 332 333 331 330 330 329 326 322 323 321 317 315 313 313 313 311 309 309 309 308 309 312 317 319 321 326 327 326 327 327 328 326 321 317 314 311 308 309 308 307 308 307 309 310 310 310 311 312 311
317 318 316 318 325 326 329 331 334 330 321 320 317 317 323 325 324 321 318 318 320 320 320 321 321 322 326 333 332 331 336 337 336 334 333 332 332 332 333 332 331 331 331 331 332 332 331 331 332 331 330 330 329 328 325 322 323 322 318 316 314 312 313 313 311 310 309 308 308 309 314 315 321 326 326 327 326 323 323 322 319 314 310 308 307 307 308 308 308 308 309 310 310 310 311 311 311
316 317 316 319 326 325 330 329 334 333 320 323 320 318 324 322 322 318 317 319 319 320 320 320 322 323 328 332 330 333 336 336 336 333 331 333 335 334 333 333 332 332 331 331 331 331 331 331 331 330 329 329 329 327 325 323 323 322 319 317 316 313 312 313 312 312 310 309 308 308 311 312 320 323 321 326 325 320 320 320 317 312 308 307 308 308 308 308 308 309 309 310 310 310 310 311 311
316 317 317 319 322 321 328 324 324 327 321 327 325 321 323 319 319 317 317 319 318 320 319 318 321 324 329 330 331 330 330 334 334 332 333 335 336 335 335 334 332 332 332 331 330 331 331 331 330 330 329 330 329 326 325 323 323 323 320 319 318 315 313 312 312 312 311 311 308 308 308 309 319 320 317 323 322 319 320 318 316 316 313 308 308 308 308 309 309 309 309 310 310 310 311 311 312
317 320 319 322 323 320 330 326 319 324 319 323 326 323 320 316 317 316 318 319 318 319 319 320 320 324 329 331 332 330 329 331 331 332 336 337 336 336 336 335 333 332 332 331 330 330 330 330 330 330 330 329 328 326 325 323 323 324 321 321 320 318 317 315 313 313 312 312 310 308 307 309 317 317 316 320 317 317 317 316 318 319 316 308 307 308 308 309 309 309 309 309 310 310 310 311 312
320 322 321 325 328 326 332 327 321 326 318 317 321 320 318 315 316 316 317 318 318 317 319 321 320 324 327 328 331 332 331 329 331 333 336 338 336 336 337 335 334 332 332 332 330 330 330 329 330 330 329 328 327 326 325 323 323 325 323 322 321 320 319 318 316 314 313 313 312 310 307 308 314 314 312 315 315 320 321 320 321 316 311 307 307 308 308 309 309 309 309 309 310 310 311 312 313
320 323 321 323 331 331 327 322 319 320 318 318 318 317 317 316 316 316 316 316 317 316 319 321 320 323 324 327 333 333 331 331 334 333 335 337 336 335 336 335 333 332 332 332 331 331 330 330 330 330 330 328 328 327 326 324 323 325 325 323 322 322 321 320 318 317 315 314 313 312 310 308 311 312 310 313 316 320 323 321 320 316 309 307 308 308 308 309 309 309 309 310 310 311 312 313 313
321 323 319 324 334 329 320 320 321 318 318 319 317 317 317 316 317 316 316 316 316 316 318 319 319 322 324 330 335 335 333 333 334 334 334 334 335 335 334 334 332 332 331 333 333 332 331 330 331 331 331 330 329 328 327 325 324 325 327 325 323 323 322 321 320 318 316 315 314 313 312 310 309 309 308 313 316 315 316 316 318 316 308 307 308 308 308 309 309 309 309 310 310 311 312 313 313
322 320 320 327 331 326 322 323 321 319 318 317 316 317 317 317 317 316 316 316 316 317 317 317 321 323 325 329 332 335 336 335 333 334 335 333 334 335 334 334 333 331 331 333 333 333 332 331 331 331 332 331 330 329 328 326 324 325 327 327 325 324 323 322 321 320 318 316 315 314 313 312 310 310 308 310 313 312 313 315 317 314 307 307 308 308 308 308 308 309 309 309 310 311 312 314 314
322 323 331 331 326 326 326 324 320 319 317 317 317 316 317 316 317 316 316 317 317 318 316 317 321 322 325 327 328 334 338 336 333 333 336 335 334 334 334 334 334 334 334 333 334 334 333 331 331 331 332 332 331 331 330 327 325 325 327 328 328 325 324 323 323 321 320 317 316 315 314 314 311 310 309 307 309 311 313 315 313 309 307 308 307 307 308 308 308 308 308 308 309 310 311 312 314
322 325 336 327 324 329 324 321 321 320 318 318 317 316 318 316 317 317 317 318 316 317 316 317 320 322 327 327 327 334 338 336 335 334 336 336 335 334 334 334 335 336 336 335 334 334 333 332 331 331 332 332 332 332 331 329 326 326 327 328 329 327 325 324 324 322 321 319 317 316 315 315 314 312 310 308 307 307 309 310 308 307 307 307 307 307 307 307 307 307 308 308 308 308 309 311 313
322 323 330 323 323 327 323 322 320 321 320 320 318 315 317 316 317 317 317 318 316 316 316 317 320 323 328 329 330 333 337 337 335 335 335 337 336 335 334 334 335 335 336 336 335 334 334 333 332 332 332 332 332 333 333 331 328 327 327 328 329 329 327 325 325 324 322 321 319 317 316 315 315 314 312 309 307 305 306 306 306 306 306 306 306 306 306 307 306 306 306 306 308 308 310 312 313
322 321 329 327 323 322 322 322 321 324 321 319 319 316 317 316 316 317 317 318 317 317 316 317 319 321 326 330 330 326 331 336 336 335 335 336 337 337 334 334 335 334 335 335 335 335 334 333 332 332 332 333 332 333 333 333 331 329 328 328 329 330 329 326 325 325 324 322 321 319 317 316 316 315 314 311 308 306 305 305 305 305 306 306 306 306 305 305 305 305 304 306 308 309 311 312 313
321 320 327 326 320 319 319 320 322 325 319 317 318 316 317 315 316 316 316 317 317 316 316 317 318 318 319 323 323 316 321 332 336 336 335 336 338 336 334 335 336 335 334 335 335 334 335 333 332 332 332 333 333 333 333 333 332 331 330 329 329 329 329 328 326 325 325 324 323 321 319 317 317 316 315 314 311 308 306 304 305 305 305 305 305 305 305 304 304 304 305 308 311 312 312 312 312
319 322 330 323 320 319 318 321 322 323 320 317 316 316 317 316 316 316 316 317 316 316 315 316 316 318 319 319 319 315 316 325 334 337 335 336 337 336 336 337 337 335 335 334 334 334 334 334 333 332 332 333 333 334 334 334 334 332 332 330 330 329 329 329 328 327 326 326 324 323 321 319 317 317 317 315 314 312 309 307 305 304 304 304 304 304 304 304 304 306 309 312 313 313 313 312 312
318 328 333 324 324 321 317 321 319 320 321 316 315 316 317 316 316 316 316 316 316 316 315 316 317 319 319 319 318 316 315 320 330 334 335 335 336 336 336 337 336 334 334 334 334 333 333 334 334 333 332 333 334 334 334 334 334 334 333 332 331 330 329 329 329 328 326 326 326 325 323 321 319 318 318 317 315 314 313 311 309 306 305 304 304 303 303 304 306 309 312 314 315 314 313 313 313
319 327 327 327 332 320 314 318 315 317 319 315 316 316 316 316 315 315 316 315 315 316 316 317 318 317 317 318 318 316 315 318 324 329 332 333 334 334 334 334 334 332 331 332 332 333 333 333 333 334 333 333 333 334 334 334 334 334 334 333 333 332 331 330 330 330 328 327 327 326 325 324 321 319 318 318 317 316 315 314 312 311 308 306 304 304 304 305 309 312 314 315 315 315 314 313 313
318 323 325 326 327 317 313 315 314 317 317 315 315 315 316 315 315 316 315 314 314 315 317 318 318 316 316 318 319 318 316 316 320 325 328 329 330 331 330 329 329 327 326 327 328 330 333 333 333 333 334 334 334 334 335 335 335 335 335 334 334 333 333 332 331 331 330 328 327 327 326 326 324 321 319 319 318 317 316 315 315 315 313 310 307 306 306 308 312 314 316 316 316 316 314 314 314
316 324 329 322 317 316 316 315 315 317 316 316 315 315 315 315 316 315 314 315 314 314 316 317 317 315 315 318 318 319 318 317 318 322 324 326 327 327 325 323 322 321 322 325 327 327 329 331 332 333 333 334 334 334 335 335 335 335 335 335 335 334 334 333 332 332 331 330 329 328 327 327 326 324 320 320 320 318 317 317 317 318 317 315 312 310 310 311 313 316 317 317 317 316 315 314 315
316 318 321 316 314 317 317 315 317 316 316 316 314 315 316 315 315 314 314 317 317 315 315 315 315 315 315 316 317 318 319 318 317 318 320 321 322 322 322 322 322 323 323 323 323 323 325 328 330 331 333 333 334 334 334 335 335 335 334 334 335 335 334 334 333 332 332 331 330 329 328 328 327 326 323 320 320 319 319 318 317 319 319 318 316 314 313 314 315 316 317 318 318 317 316 316 316
319 316 314 315 315 317 316 315 316 316 316 315 313 315 315 314 315 315 314 316 316 315 316 315 315 315 315 315 316 317 318 318 317 315 316 317 317 318 318 319 320 320 320 319 319 320 322 324 326 329 331 332 333 333 334 334 334 334 334 333 334 335 334 334 334 333 333 332 332 330 329 328 328 327 325 322 321 320 320 320 319 319 320 320 319 317 316 316 316 317 317 318 318 318 318 318 317
320 318 314 315 316 316 316 315 316 316 316 315 315 315 314 315 316 315 314 315 316 316 317 316 315 315 315 316 316 315 316 316 316 315 315 315 315 315 315 316 316 317 317 317 317 318 319 321 323 325 328 330 332 332 333 333 333 333 333 333 334 335 335 334 334 334 334 333 332 331 330 329 329 328 327 325 323 322 321 321 320 319 319 320 320 320 319 318 317 317 317 318 318 318 319 319 318
317 317 314 315 315 315 315 315 316 316 316 316 316 315 315 315 315 315 316 316 316 316 317 316 316 316 316 316 316 316 315 315 315 315 315 315 315 315 315 315 316 317 316 315 316 316 317 318 320 322 323 326 329 331 332 332 332 333 332 332 333 334 335 334 333 333 334 333 333 332 331 330 329 329 328 327 326 324 323 322 321 321 320 320 320 321 320 319 318 318 318 318 318 318 319 319 319
314 315 315 314 314 314 314 314 315 315 316 316 315 316 315 315 315 316 316 316 316 316 316 316 316 316 316 316 316 316 315 315 315 315 315 315 315 315 315 315 315 316 315 315 315 315 316 316 318 318 320 322 325 328 330 330 331 332 331 331 332 333 333 334 333 333 333 333 333 332 331 331 330 329 329 329 328 327 326 324 323 322 321 321 320 320 321 321 320 319 318 318 318 319 319 319 319
314 314 314 314 314 314 314 314 314 315 315 315 316 316 316 314 315 318 317 316 316 316 316 316 316 316 316 316 316 316 316 316 316 315 315 315 315 315 315 315 315 315 315 315 315 315 316 316 316 316 317 320 322 324 326 328 329 330 330 330 331 332 333 333 333 333 333 332 332 332 332 331 330 330 330 330 329 329 328 327 325 323 322 322 321 320 321 321 321 320 319 319 319 319 319 319 319
315 315 315 314 313 314 314 315 314 315 315 315 316 315 314 315 316 317 316 316 317 316 316 316 316 316 316 316 316 316 316 316 316 316 315 315 316 315 315 315 315 315 315 315 315 316 316 315 315 316 316 318 320 321 322 324 326 327 328 328 330 331 332 332 332 332 332 332 331 331 331 331 331 330 329 329 330 330 329 328 327 326 324 323 322 321 321 321 322 321 319 319 319 320 319 319 319
315 316 318 316 317 318 315 314 314 315 316 315 315 314 315 316 317 317 315 316 317 316 316 316 316 316 316 316 316 316 316 316 316 315 315 315 315 315 315 316 316 315 315 316 315 315 316 315 315 316 316 316 317 318 319 321 322 324 325 326 327 329 331 331 331 331 332 332 332 330 330 330 330 330 330 329 329 330 331 329 328 327 326 324 323 323 322 321 321 321 320 319 320 320 320 319 319
316 315 318 321 321 321 314 313 315 315 316 315 313 314 318 318 315 315 315 315 316 316 316 316 316 317 316 316 316 316 316 316 316 315 316 316 315 316 316 315 316 316 315 315 315 315 315 315 316 316 316 316 316 317 317 318 320 321 323 324 326 327 329 330 330 330 331 331 331 331 330 330 330 330 330 330 330 330 330 330 329 328 327 325 324 324 323 322 322 322 321 320 320 320 320 320 319
318 313 319 324 318 321 318 312 315 315 315 315 313 314 320 320 314 314 316 315 315 316 316 316 316 316 316 316 316 316 316 316 316 316 316 316 316 315 316 316 315 316 315 315 315 315 315 315 316 316 316 316 316 316 316 316 317 319 321 323 325 326 327 328 329 329 330 330 330 331 331 330 330 329 329 329 329 330 330 330 330 329 328 326 326 325 324 323 322 322 321 320 320 320 320 320 319
321 314 320 323 316 324 325 313 313 317 315 315 314 316 320 320 315 315 316 315 315 315 316 316 316 316 316 316 316 316 316 316 316 316 317 316 316 316 316 316 316 316 316 316 316 315 315 315 316 316 317 317 316 316 316 316 316 318 320 322 324 326 327 327 328 328 329 330 330 331 331 331 331 330 329 329 329 328 328 329 330 329 328 327 327 326 325 324 323 322 321 321 320 320 321 320 320
325 318 321 323 317 322 323 314 313 315 315 315 314 316 320 319 315 315 316 315 315 315 316 316 316 317 316 316 316 316 317 317 317 317 317 317 317 317 317 317 317 317 316 316 316 316 316 315 316 316 316 316 317 317 317 317 317 317 319 321 322 325 327 328 327 327 328 329 330 330 331 331 331 331 330 330 330 329 328 328 328 328 328 327 327 326 326 325 324 323 322 321 320 320 320 321 320
323 318 319 323 319 318 321 320 314 312 315 317 315 315 320 319 314 315 316 315 315 316 316 317 317 316 317 317 317 317 317 317 318 318 318 318 318 318 318 318 317 317 317 317 316 316 316 316 316 316 315 316 316 317 318 318 318 318 319 321 322 324 326 326 326 326 326 327 328 329 330 331 331 331 331 330 330 330 330 329 328 328 327 326 326 326 326 325 325 324 323 322 321 320 320 320 320
322 320 320 320 317 317 322 322 316 314 316 317 317 317 319 319 314 314 316 315 315 316 316 316 317 317 317 317 317 317 318 317 318 318 318 318 318 318 318 318 318 318 317 317 317 316 316 316 316 316 316 316 316 317 318 319 320 319 320 323 326 325 323 323 324 324 324 325 325 324 326 329 331 331 331 331 330 331 331 330 329 328 328 326 325 327 326 325 324 324 324 323 321 320 319 319 320
325 325 327 324 318 318 321 320 315 314 317 318 319 318 318 319 315 313 316 315 313 314 316 316 316 317 316 317 317 317 317 318 318 317 318 318 318 318 318 318 318 317 318 317 317 317 316 316 316 316 316 316 316 316 318 319 320 319 319 322 324 322 319 319 320 321 322 322 321 320 321 324 327 329 330 331 331 331 331 331 329 328 329 328 326 326 327 326 325 324 325 324 323 322 320 319 319
322 323 327 324 320 319 318 319 315 311 316 319 319 319 318 319 317 313 313 314 311 311 313 314 315 316 316 316 317 317 317 317 318 318 318 318 318 318 318 318 318 318 318 317 317 317 317 317 316 316 316 316 316 316 316 317 317 318 318 318 318 316 316 316 317 318 318 318 318 319 321 323 325 327 329 330 330 331 331 330 330 330 329 328 327 326 327 328 326 324 324 325 324 323 322 321 320
322 324 326 322 320 319 315 317 318 311 314 319 319 319 317 317 317 312 310 311 311 311 312 313 315 315 316 316 316 317 317 317 317 318 318 318 318 318 317 318 318 318 318 317 318 317 317 317 317 317 317 317 317 316 316 316 315 315 316 316 316 315 316 316 316 315 315 315 316 318 320 323 326 329 329 328 330 332 331 331 331 330 328 328 329 328 327 328 327 324 324 325 324 323 323 322 322
327 324 323 321 318 318 316 318 319 314 314 319 321 320 317 315 315 312 309 310 312 312 313 313 315 314 315 316 316 316 316 316 316 316 317 317 317 317 317 318 317 318 318 318 318 317 317 317 317 317 317 317 317 316 316 316 316 316 316 317 318 318 317 317 317 317 317 317 316 317 318 319 323 328 331 331 331 332 330 329 330 331 329 330 330 328 328 328 327 325 325 325 324 322 320 321 322
327 325 320 320 319 319 320 320 318 315 313 317 320 319 316 316 318 317 311 309 313 314 314 314 315 315 316 316 316 316 316 316 316 316 316 316 316 317 317 317 317 317 318 318 318 317 318 317 317 317 316 317 317 317 317 317 318 319 319 320 321 321 320 320 321 321 320 318 316 316 316 316 317 320 325 329 329 328 327 326 328 329 330 331 331 329 328 328 327 326 326 325 325 323 321 320 321
322 331 330 323 321 321 320 320 318 316 315 317 318 318 322 324 328 330 317 309 311 311 313 314 314 314 315 316 316 316 317 316 316 316 316 316 316 316 316 317 317 317 317 317 317 318 318 317 317 317 316 317 317 317 318 318 319 320 321 322 323 323 322 321 321 320 319 317 316 315 314 316 316 314 317 321 323 325 328 330 330 330 330 330 330 330 329 329 328 326 326 326 325 324 324 322 322
316 326 330 322 323 324 321 322 322 318 318 317 315 317 328 333 330 330 321 313 313 310 309 311 314 315 314 316 316 315 316 316 316 317 317 317 316 316 317 317 317 317 317 317 317 317 317 317 317 317 317 317 317 317 317 318 319 320 320 321 321 321 320 319 318 317 316 316 315 314 314 315 315 317 322 326 327 328 331 332 331 330 330 329 329 329 329 328 327 326 327 327 326 325 325 323 323
315 318 322 322 328 326 322 322 319 320 319 314 315 317 321 325 322 320 318 316 319 315 310 311 313 314 313 314 314 315 315 315 316 317 317 317 317 317 317 317 317 317 317 317 317 317 317 318 317 317 317 316 317 317 317 318 318 319 319 319 319 318 317 316 315 315 315 315 315 314 314 315 315 317 323 328 330 331 331 329 328 327 326 327 326 326 326 324 323 325 327 327 325 325 325 324 323
316 318 322 325 328 325 326 326 319 322 319 317 325 323 316 319 318 316 314 316 320 320 317 313 310 313 314 314 314 314 315 316 317 318 318 318 318 318 317 317 318 317 318 318 318 318 318 318 318 317 317 317 317 316 316 317 317 317 318 318 318 318 317 316 316 316 316 315 315 315 314 315 316 316 317 320 322 325 328 329 330 329 328 327 326 327 327 325 323 325 327 327 324 325 325 324 324
317 319 322 324 325 327 334 333 325 321 315 319 328 319 313 324 324 317 314 314 317 319 321 314 310 314 316 315 316 316 317 317 318 318 317 318 317 317 317 317 318 318 319 318 318 318 318 318 318 318 317 317 316 316 316 316 316 316 316 317 317 316 316 317 317 317 317 317 316 316 315 315 315 316 316 316 316 318 321 324 326 328 329 330 329 329 328 326 325 326 327 326 324 324 325 324 324
315 316 321 323 325 328 333 331 323 318 314 322 327 316 313 321 326 321 314 315 319 320 321 315 311 316 316 316 317 317 318 317 316 317 316 317 317 316 317 317 317 317 318 319 319 319 318 318 318 318 317 317 316 316 315 315 315 315 315 316 315 315 316 316 317 317 317 317 316 316 316 315 315 316 316 316 316 316 316 317 319 321 322 323 325 327 329 329 327 326 327 326 323 324 326 324 323
313 321 326 323 327 329 333 332 321 313 318 327 325 318 313 314 325 326 315 315 319 318 321 317 314 317 317 318 318 316 317 316 316 316 316 317 317 317 318 317 317 317 317 318 317 318 318 317 317 317 316 316 316 315 315 315 315 314 315 315 315 315 315 316 316 316 316 316 316 315 315 315 315 315 315 315 315 315 316 315 315 315 314 314 314 316 322 326 326 326 326 323 322 326 327 325 322
316 328 328 319 323 327 330 331 320 314 323 327 320 317 313 313 323 325 319 318 316 315 319 319 316 317 317 317 316 315 316 316 316 316 316 316 316 316 317 317 318 318 318 318 317 317 317 317 316 316 316 316 315 315 315 315 314 315 315 314 315 314 315 315 315 315 315 315 315 315 314 315 315 315 315 315 315 315 315 314 313 312 311 311 312 315 318 320 321 323 323 321 322 326 326 323 321
319 323 323 317 318 320 322 326 322 319 321 319 317 317 313 315 318 317 319 320 315 312 314 316 315 315 317 317 315 315 315 315 316 316 316 316 315 316 316 316 317 318 318 318 318 318 318 317 317 317 317 316 316 316 315 315 315 315 315 315 315 314 314 315 315 315 315 314 314 314 314 314 314 314 315 314 314 314 314 314 312 312 310 311 316 321 321 321 319 318 320 321 323 326 324 323 321
318 317 320 318 317 316 318 322 318 318 319 315 315 315 317 320 316 314 318 314 312 312 312 315 316 315 317 316 315 315 315 316 316 316 316 316 316 316 315 315 316 317 318 318 318 319 319 318 318 318 318 317 317 317 316 316 316 316 316 315 315 315 315 315 315 315 314 314 314 314 314 314 313 313 314 313 313 313 313 312 311 311 310 310 318 324 325 326 321 317 321 324 325 326 325 323 321
317 319 316 317 322 320 319 321 318 318 320 316 313 315 323 323 315 313 313 310 311 312 312 315 316 316 317 314 314 315 315 316 316 316 316 316 316 316 316 316 315 316 317 318 318 318 318 318 318 318 318 317 317 317 317 317 317 316 316 316 316 316 315 315 315 315 314 314 314 313 313 313 313 313 313 312 312 311 311 311 310 311 310 310 316 322 324 325 320 317 323 326 325 325 325 323 319
317 316 314 314 320 321 317 316 319 318 318 317 314 318 325 320 313 313 310 309 310 308 310 314 314 315 315 314 315 315 316 317 316 316 315 315 316 315 316 316 316 316 316 316 317 317 318 318 318 318 317 317 317 317 317 317 317 317 316 316 316 316 316 315 315 315 315 314 314 314 314 314 313 313 313 312 312 311 310 310 310 310 310 310 314 320 321 321 319 319 323 324 323 324 325 323 319
316 314 318 317 316 321 319 313 314 314 313 316 315 318 322 316 314 317 313 312 313 311 311 310 310 314 313 313 315 315 317 316 315 316 315 315 316 315 316 316 316 316 316 316 316 316 317 316 317 317 317 317 316 317 317 317 317 317 316 316 316 316 316 315 315 315 315 314 314 314 314 314 314 313 313 312 312 312 311 311 310 310 310 310 312 317 321 322 322 321 319 319 321 323 324 322 318
319 318 320 315 311 319 322 317 319 317 314 318 316 315 319 316 318 322 315 311 314 317 314 306 307 313 313 314 315 315 317 315 315 316 315 315 316 315 316 316 316 317 316 316 316 315 316 316 316 316 316 316 316 316 317 317 317 316 316 316 316 316 315 315 315 315 314 314 314 315 314 314 314 313 313 313 312 312 311 311 311 310 310 310 310 312 316 320 320 319 318 318 322 323 322 320 319
317 318 316 316 318 321 319 316 319 318 315 320 320 314 314 314 317 320 314 313 317 316 313 310 310 313 313 315 315 315 316 315 315 316 315 315 316 315 316 315 315 316 316 316 316 315 316 315 316 316 316 316 316 316 317 316 317 317 316 316 316 316 315 315 315 315 315 315 315 315 315 315 315 314 314 313 313 312 311 311 311 310 310 310 309 310 312 316 318 319 319 320 322 322 320 320 320
312 313 312 316 322 323 320 316 317 317 316 319 320 316 316 317 317 316 313 316 318 314 315 315 312 313 315 316 316 316 316 315 316 315 315 316 315 315 315 315 315 315 315 316 316 316 316 315 316 316 315 315 315 316 316 316 317 317 317 317 316 316 316 315 315 315 315 316 316 316 316 315 315 315 315 314 314 313 312 311 311 310 309 310 312 312 312 314 318 320 320 319 319 319 320 320 320
315 316 315 316 317 317 319 317 315 318 319 320 317 315 320 322 317 315 315 316 316 314 316 316 312 313 316 316 316 316 315 316 316 315 315 315 315 315 315 315 315 315 315 315 315 316 316 315 315 315 315 315 315 316 316 316 317 317 317 317 316 316 315 315 315 315 316 316 316 316 316 316 315 315 315 314 314 313 312 311 310 310 309 310 313 315 316 317 319 320 320 319 319 319 320 320 319
316 316 316 316 316 317 317 316 315 315 317 320 318 312 317 321 316 315 317 316 313 311 313 314 312 314 317 316 316 315 314 315 315 315 315 315 314 315 315 315 315 315 315 315 315 315 315 316 316 315 315 315 315 316 316 316 316 316 317 316 316 316 315 315 316 316 317 317 316 317 316 316 316 315 315 314 313 313 312 311 310 310 309 309 312 315 317 317 318 319 319 319 319 320 320 318 318
Wind_Speed
7 6 5 4 3 3 4 1 1 2 3 3 0 1 2 2 2 4 3 1 2 3 8 10 8 8 7 10 11 9 6 2 4 3 4 11 19 20 19 19 17 16 16 16 15 14 15 15 14 12 11 10 9 8 8 8 9 10 12 12 12 12 12 12 12 13 12 12 13 12 13 14 14 14 15 15 15 13 13 13 13 11 10 9 10 10 10 10 10 10 10 10 10 11 11 10 11
7 6 4 3 2 2 3 2 2 2 5 3 1 2 2 2 4 6 5 4 5 7 12 15 16 16 16 15 11 7 6 2 3 7 14 21 23 20 18 18 17 16 15 15 15 14 15 14 14 12 11 10 9 8 8 8 8 10 12 12 13 13 12 12 12 12 12 13 13 12 12 13 14 14 15 16 15 13 11 10 10 10 9 8 10 11 11 10 10 10 10 10 10 10 10 10 10
6 5 4 3 2 2 3 3 2 2 4 3 2 2 1 3 5 6 6 9 12 16 16 15 13 11 10 7 5 3 3 4 10 17 22 25 24 22 20 18 18 16 15 15 15 14 14 14 14 12 11 10 9 8 7 7 7 9 11 12 13 13 13 12 12 12 12 13 13 12 12 12 13 13 14 15 13 12 11 9 9 10 9 9 11 12 12 11 11 11 10 10 10 10 10 10 10
6 5 4 3 2 1 3 3 2 5 4 3 2 3 2 6 7 6 6 13 16 16 13 10 7 4 5 6 6 5 4 9 17 21 24 24 22 23 22 19 19 16 15 15 14 14 13 13 12 11 11 10 9 7 6 7 7 9 11 12 13 14 14 13 12 12 12 13 13 12 11 12 13 12 12 14 11 11 10 8 8 9 10 12 14 14 13 13 12 12 12 10 10 10 10 10 10
5 4 4 3 1 0 3 3 2 4 4 4 3 3 4 6 6 5 7 12 12 10 10 10 6 5 8 8 4 3 7 13 17 20 23 22 20 22 22 20 19 17 17 15 15 14 13 12 12 11 11 11 9 7 6 6 7 9 10 11 12 13 14 13 13 12 12 12 12 12 11 11 12 10 10 12 11 10 9 8 8 10 12 15 15 14 13 13 13 12 12 11 11 10 10 10 9
5 4 2 1 1 1 2 3 3 2 4 5 4 4 5 6 7 8 8 9 8 8 10 10 8 8 8 6 4 7 12 13 16 19 22 22 20 22 21 20 19 18 17 16 15 14 13 13 12 12 11 11 9 8 7 7 7 9 10 11 12 13 14 14 13 12 12 11 11 12 11 11 11 9 10 11 10 9 8 9 11 12 14 16 15 14 13 13 13 13 12 12 11 11 10 9 9
5 3 1 2 2 2 3 4 4 2 2 5 6 5 6 7 10 12 9 7 7 7 8 10 13 11 5 5 6 9 11 11 17 19 20 21 20 21 20 20 19 19 17 16 15 14 13 12 12 12 11 11 10 8 7 7 7 8 9 10 12 13 14 14 14 13 12 11 11 11 11 10 10 9 9 9 9 9 9 11 12 13 15 16 15 14 14 13 13 13 13 12 11 11 10 9 9
4 2 1 3 2 4 4 3 2 3 1 3 6 8 11 13 14 11 6 6 5 6 8 12 14 7 3 6 5 7 10 12 17 18 19 19 19 20 20 20 20 19 17 16 15 14 13 12 12 11 11 11 10 9 7 8 8 8 9 9 10 12 13 14 14 13 12 11 11 10 10 10 9 9 9 9 10 11 11 12 11 12 15 17 15 14 14 14 15 14 13 12 11 11 10 9 9
3 2 1 2 2 3 3 2 1 2 0 2 5 8 15 17 14 10 5 3 5 8 11 13 10 5 6 6 6 10 12 13 16 17 18 19 20 20 20 20 20 19 18 16 15 14 13 12 12 11 11 11 10 9 8 8 8 9 9 8 9 11 12 13 13 13 13 12 11 10 9 9 9 9 9 9 11 12 12 11 10 12 15 17 16 15 15 15 15 14 13 12 11 10 10 9 9
2 2 1 2 2 4 3 1 0 1 2 4 5 11 18 17 12 10 8 5 8 9 10 11 7 8 10 8 9 13 14 15 17 17 17 18 20 21 21 19 18 18 17 16 15 14 13 12 12 12 12 11 9 8 7 8 8 8 9 8 8 9 10 11 12 12 12 11 10 10 9 9 8 8 9 9 11 11 11 10 10 12 16 17 16 15 15 15 15 15 13 12 11 10 9 8 7
1 0 2 4 3 3 3 2 2 1 2 2 4 14 19 17 12 10 8 7 8 8 10 8 7 13 11 8 9 13 17 17 17 17 18 18 18 20 21 19 18 17 16 16 15 15 14 13 13 12 12 11 9 8 7 8 8 8 8 8 7 8 9 10 11 11 11 10 10 9 8 8 7 8 8 8 9 10 11 11 11 13 16 16 15 15 15 14 15 15 13 12 12 11 9 8 8
0 2 3 4 3 3 4 4 4 2 1 2 4 11 15 17 13 9 9 9 8 7 9 6 10 15 7 3 8 14 19 18 16 16 19 19 18 20 20 20 19 17 16 15 15 15 14 14 13 13 12 11 10 8 8 8 8 8 8 8 7 6 7 8 9 10 10 10 9 9 8 7 7 7 8 8 9 9 10 11 12 14 16 16 15 15 14 14 15 14 13 12 11 10 10 9 9
2 0 5 2 2 4 4 4 4 1 1 4 5 9 14 16 14 15 14 10 9 7 6 6 14 13 4 3 10 16 21 20 18 18 20 20 19 20 19 20 19 18 16 15 15 15 15 14 13 13 13 12 11 9 8 8 8 8 7 8 7 6 6 7 7 8 9 9 9 8 8 7 7 6 7 7 8 9 9 10 12 14 15 15 15 14 13 14 15 14 13 11 10 10 9 9 9
2 1 4 2 1 4 5 3 2 3 2 6 4 9 13 11 13 19 16 9 7 8 6 8 16 10 3 6 10 20 24 23 22 20 21 21 21 20 20 19 18 18 17 16 16 15 15 15 14 13 13 13 12 11 10 9 9 9 8 8 8 7 6 6 6 7 8 8 8 8 7 7 7 6 6 6 7 8 9 10 12 13 14 14 14 13 13 14 14 13 12 11 10 8 8 8 8
2 1 4 3 2 2 4 2 3 5 3 5 6 10 9 7 10 17 16 10 6 9 8 8 12 5 5 9 8 21 26 25 25 21 22 23 23 22 21 19 17 17 17 17 17 16 16 16 16 15 15 14 14 13 12 11 11 10 9 8 8 8 6 6 5 5 6 7 7 7 7 6 6 6 6 6 6 7 7 9 10 11 12 12 12 12 12 13 13 13 12 11 9 8 6 6 5
2 1 4 3 1 2 3 2 4 4 3 5 8 11 8 6 9 12 12 10 8 10 7 7 8 3 8 10 5 16 25 26 26 23 24 25 25 23 20 19 18 18 18 19 18 17 17 17 18 17 17 16 15 15 14 13 12 11 11 10 9 8 7 6 6 4 4 5 6 6 6 6 5 5 5 5 5 5 6 7 8 9 9 11 11 11 11 12 13 12 11 10 9 7 6 5 4
1 1 4 2 1 2 3 4 4 4 4 4 8 12 8 4 7 10 9 10 12 10 6 7 8 5 7 7 6 16 23 26 28 26 27 29 28 24 21 21 21 21 20 20 20 19 18 18 19 18 18 17 17 16 15 15 13 13 12 11 10 9 9 8 6 5 4 4 4 5 5 5 5 4 5 4 4 5 5 6 7 8 8 9 10 10 11 12 13 12 11 10 8 7 6 5 5
1 2 3 2 2 1 3 6 6 4 5 7 11 14 10 6 7 11 9 9 12 8 6 8 8 8 7 7 10 17 22 26 30 30 31 32 30 26 25 25 24 24 23 22 21 21 20 19 19 18 19 18 18 17 16 15 15 14 13 12 11 10 11 10 8 7 6 5 4 4 4 4 4 4 4 4 4 4 5 6 7 7 8 9 10 11 12 13 13 11 10 9 8 7 6 5 5
2 3 3 3 5 3 2 4 5 3 7 12 13 14 12 9 12 13 7 6 11 8 5 8 9 9 9 10 13 16 21 25 28 31 32 33 32 30 28 28 27 25 24 24 22 22 21 20 19 19 19 19 19 18 17 16 16 15 15 14 13 12 12 12 11 9 8 7 5 4 4 4 4 4 4 4 4 4 5 7 8 8 8 9 10 11 12 12 12 11 10 9 8 7 6 6 5
2 3 3 4 6 3 2 1 3 5 11 16 13 13 10 9 15 13 8 7 7 7 8 8 10 12 12 13 14 15 20 23 26 29 31 32 31 30 28 27 26 24 24 24 23 22 21 21 20 19 19 19 20 19 18 18 17 17 16 16 15 14 14 13 13 12 11 9 8 7 6 5 5 5 5 4 5 5 5 7 8 9 8 9 9 10 11 11 11 10 10 9 8 7 6 5 5
2 4 3 5 5 2 2 3 1 5 15 17 14 12 6 8 14 12 11 8 3 10 15 12 12 15 16 17 16 16 18 21 24 27 29 30 29 29 27 24 22 21 22 23 24 23 22 22 21 20 20 20 21 20 20 20 19 18 18 18 17 16 16 15 15 14 13 12 10 9 8 7 7 6 6 6 6 6 6 6 8 8 8 8 9 9 10 10 11 11 10 9 8 8 7 5 5
3 1 2 4 6 3 1 2 2 8 13 14 13 10 7 9 12 13 14 9 6 12 16 14 13 14 15 17 18 18 18 20 23 26 28 28 28 27 26 25 23 22 22 23 23 23 23 23 22 22 22 22 22 22 21 21 20 20 20 19 19 18 18 17 17 16 15 14 13 12 10 9 8 8 7 7 6 6 6 6 7 7 8 8 9 9 10 10 11 11 11 10 9 8 7 6 5
3 1 1 3 5 4 5 3 4 10 12 12 12 9 10 10 7 12 15 11 9 8 11 13 13 14 14 16 19 20 19 20 21 23 24 25 25 25 25 24 24 23 22 22 22 22 23 23 24 24 24 23 23 23 22 22 22 21 21 20 20 20 20 19 19 18 18 16 15 14 12 10 9 9 8 8 7 7 7 7 7 7 8 8 9 9 10 10 12 12 12 11 10 8 7 6 5
4 2 1 3 4 6 6 5 6 9 12 12 11 10 11 10 6 9 13 14 10 6 6 9 12 15 16 18 20 20 19 19 19 19 20 20 20 20 21 22 22 22 23 22 22 22 23 23 24 25 25 25 24 24 24 23 23 22 22 22 21 21 21 21 20 19 19 19 16 15 14 12 11 10 10 9 8 8 8 8 8 8 8 9 9 9 10 10 11 12 12 12 10 9 8 7 6
3 3 4 4 4 5 6 6 6 7 9 9 9 8 8 8 4 6 12 14 12 10 8 8 10 14 18 21 21 21 20 19 18 18 19 19 19 20 21 22 23 25 24 23 22 22 22 23 24 25 26 26 26 25 25 24 24 24 23 23 22 22 22 22 20 19 20 20 18 16 15 14 12 12 11 10 10 9 9 9 9 9 9 10 10 10 10 10 11 12 13 12 12 10 9 8 7
3 7 8 6 4 6 6 5 6 5 6 7 6 3 3 5 2 7 14 15 14 14 12 10 9 11 15 19 21 21 21 21 19 19 19 19 21 23 23 23 24 25 24 23 23 23 22 22 23 24 25 26 26 27 27 26 26 26 25 24 23 23 23 21 20 19 20 21 20 18 17 15 14 14 13 12 12 11 10 10 10 10 11 11 11 11 11 11 12 12 13 13 13 12 11 9 8
8 11 10 8 6 6 4 4 5 5 4 4 5 2 2 3 0 6 11 11 15 17 15 14 13 12 13 15 19 20 20 20 19 19 20 21 23 23 23 24 25 25 24 24 24 24 24 24 24 23 24 25 26 27 28 28 27 27 26 25 25 24 23 22 21 20 21 22 22 20 18 17 17 16 15 14 14 13 12 11 11 12 12 12 12 13 13 13 13 13 14 14 14 14 13 12 10
13 14 9 5 4 3 2 4 6 4 3 3 4 1 3 0 1 10 10 7 12 17 18 16 16 15 14 15 17 19 21 20 19 21 22 22 22 21 22 22 23 24 24 24 23 24 25 25 25 24 24 24 26 27 28 28 28 28 28 27 26 26 24 24 22 21 22 22 22 22 21 20 19 18 17 16 16 15 14 13 13 13 13 13 14 14 14 15 15 15 16 16 16 15 15 14 12
12 10 5 5 6 2 3 4 5 4 2 3 3 2 4 2 8 15 8 5 8 13 18 20 19 17 16 16 18 20 21 20 22 24 23 22 21 21 21 21 21 22 22 22 22 24 25 25 25 26 26 25 26 27 27 28 28 29 29 28 28 27 27 26 25 23 23 23 24 24 23 22 21 19 18 18 18 18 17 16 15 14 14 15 15 16 16 17 17 17 18 19 18 17 17 16 14
7 4 4 2 6 4 4 2 4 4 2 4 4 1 6 6 16 19 9 7 10 12 18 21 21 19 18 18 19 21 21 22 25 26 24 23 23 23 22 21 21 22 21 22 23 24 24 24 25 26 27 27 27 27 27 28 28 29 29 30 29 29 28 28 27 26 25 25 25 25 24 24 23 21 20 20 20 20 20 19 18 17 16 16 17 17 18 18 19 19 20 20 20 19 18 17 16
3 1 2 3 2 3 5 1 6 5 2 3 5 1 6 8 13 15 13 15 14 15 17 18 21 21 20 20 20 21 22 23 24 24 24 24 24 25 24 23 23 23 23 23 24 23 23 23 24 26 27 27 28 28 28 28 28 29 30 30 30 30 30 30 29 28 28 27 26 26 26 26 25 24 23 21 22 22 22 21 21 19 18 18 18 18 19 20 20 21 21 22 21 21 20 18 18
3 2 1 3 3 4 7 1 8 6 2 2 5 1 7 8 9 5 5 10 13 16 16 16 19 20 21 21 21 22 22 22 23 23 24 24 25 25 24 24 25 25 26 25 24 24 24 24 24 25 26 27 28 28 29 29 29 29 30 31 31 31 32 31 31 31 30 29 29 28 27 27 27 26 25 24 24 24 23 23 22 22 21 20 20 19 20 21 22 22 23 23 23 22 22 21 21
4 3 2 2 2 2 4 1 4 4 2 1 3 2 4 4 5 3 5 4 11 14 15 15 18 19 20 21 22 23 23 24 25 25 24 23 24 24 24 24 24 26 26 26 26 26 26 25 26 26 26 26 27 27 28 29 30 30 31 31 32 32 33 33 33 33 32 32 32 30 30 29 29 29 28 27 27 26 25 24 23 23 23 22 21 20 20 21 23 24 24 24 24 24 24 24 23
3 2 1 3 3 2 2 2 2 2 3 1 1 3 6 6 8 8 3 2 7 11 13 15 16 18 19 20 22 23 24 25 26 26 24 23 23 22 22 22 23 25 26 27 27 27 27 27 27 26 26 26 27 27 27 29 30 30 31 32 33 33 34 34 34 34 34 34 34 33 32 31 30 30 30 29 28 28 28 27 25 25 25 24 22 22 21 21 23 24 25 25 25 26 26 26 25
4 2 2 2 2 2 3 3 2 2 2 2 1 3 10 11 13 18 17 11 11 14 15 16 18 20 21 22 24 25 26 28 28 27 24 24 23 22 21 21 22 24 25 27 28 28 29 29 28 28 28 27 27 27 27 28 29 30 32 33 34 34 34 34 35 35 34 34 34 34 34 33 33 32 31 31 30 30 30 30 28 27 28 27 24 24 25 24 23 25 25 26 26 27 27 27 26
8 6 5 4 3 3 4 4 3 1 2 4 5 5 9 11 11 16 23 18 13 16 19 22 24 25 25 26 27 28 29 31 30 26 25 25 25 24 23 23 23 23 25 26 28 29 30 30 30 30 30 29 29 29 29 29 30 31 32 34 36 35 34 34 34 34 34 34 34 33 33 34 35 34 33 33 33 33 33 32 31 29 30 30 27 27 28 27 25 25 25 26 27 28 29 30 29
7 5 4 4 4 2 3 3 4 2 3 5 5 5 8 11 10 15 23 19 12 17 21 24 27 27 28 27 28 29 30 31 30 27 26 26 26 27 26 26 25 25 25 27 28 29 30 31 32 31 30 31 31 31 31 30 31 32 33 34 35 35 35 34 34 34 34 34 33 33 34 34 35 35 34 34 34 34 34 34 33 31 31 33 32 29 28 30 28 25 25 27 28 29 30 31 32
6 6 5 2 2 2 2 2 4 2 2 4 3 4 10 11 11 15 19 13 13 20 22 25 28 27 28 28 29 30 30 30 30 29 28 27 28 28 28 28 28 28 27 26 27 27 29 31 32 31 31 32 31 31 31 31 32 32 33 33 33 34 34 34 34 33 33 33 33 34 35 35 36 37 36 35 34 35 35 34 36 35 33 36 36 31 31 33 31 27 27 30 32 32 31 31 32
5 4 4 2 1 2 3 3 4 3 1 4 4 5 10 11 10 15 18 14 17 23 22 24 26 25 27 29 31 31 31 32 31 30 30 29 29 28 29 29 30 30 28 27 27 26 28 30 31 31 31 31 31 30 31 31 31 33 34 34 34 34 34 34 35 34 34 34 34 35 36 36 37 38 40 38 37 37 36 36 38 38 36 38 37 33 35 38 34 30 30 32 34 35 35 34 34
4 4 4 2 2 1 1 3 4 3 1 2 4 5 9 8 6 11 15 15 17 19 18 20 21 22 25 26 28 30 30 30 29 28 27 28 28 28 28 29 29 30 30 29 28 27 28 28 30 30 30 30 30 30 30 30 32 34 35 36 36 36 35 35 37 37 37 37 36 36 37 37 38 39 41 42 41 39 38 37 38 38 39 41 40 37 39 42 38 34 34 36 37 38 38 37 36
2 3 5 3 2 4 3 2 3 3 3 3 4 5 7 5 5 7 7 5 9 11 11 14 16 17 18 19 22 24 25 25 24 22 21 23 25 24 25 27 28 29 29 29 28 27 26 26 27 29 29 30 30 30 30 30 33 35 36 38 38 39 39 39 40 40 40 39 38 37 37 37 38 37 37 39 39 36 37 38 38 39 39 40 42 41 41 42 40 40 42 40 39 39 40 37 36
2 2 6 6 6 5 2 2 5 4 4 3 5 4 6 5 5 7 6 4 7 8 8 14 18 18 18 20 22 23 23 23 22 20 19 20 20 19 20 23 25 26 26 25 25 25 25 25 25 27 29 30 29 30 30 31 34 35 37 39 40 42 42 42 41 40 40 39 38 38 37 37 36 35 34 35 35 34 37 40 39 41 40 40 42 42 42 42 44 47 45 41 40 41 42 40 37
1 3 5 6 7 7 3 1 3 1 3 3 4 3 5 7 5 8 6 6 8 9 9 17 23 21 21 23 23 23 23 20 19 18 17 17 17 17 18 20 22 22 21 22 23 24 25 25 25 26 28 29 29 30 30 32 34 35 37 39 40 41 42 42 40 40 40 39 39 39 38 36 35 35 35 37 38 38 40 41 41 42 42 43 43 44 46 45 47 51 47 40 42 44 43 42 40
2 3 6 7 7 7 4 5 3 2 3 4 4 4 3 6 6 7 5 5 8 10 11 14 18 18 17 16 15 13 13 12 11 11 11 12 14 15 16 16 18 18 18 20 22 23 24 24 24 25 26 28 28 29 30 32 33 35 36 37 39 40 41 40 39 40 40 40 40 39 38 38 36 35 36 38 39 41 42 41 41 42 43 44 45 46 50 46 44 51 49 41 43 46 43 41 41
4 4 7 6 6 7 5 6 3 2 2 5 5 2 2 6 7 5 5 4 8 10 10 11 15 16 10 4 2 2 1 2 4 5 7 9 9 10 10 11 13 15 16 18 20 21 22 23 24 26 26 27 28 29 30 31 32 33 35 36 38 39 39 39 39 40 40 40 40 39 39 39 38 37 37 37 38 39 41 42 43 44 44 45 46 48 51 48 44 47 48 44 46 48 45 40 41
4 6 7 5 6 6 5 5 3 2 2 5 6 3 3 6 7 4 3 3 6 8 8 8 11 11 8 10 10 9 6 3 1 2 4 5 4 4 5 7 9 12 14 16 18 20 22 24 25 26 26 27 28 28 29 30 30 32 33 35 36 37 37 37 38 39 39 40 39 39 39 39 39 39 39 39 39 39 39 40 42 44 46 47 48 48 49 49 46 44 47 48 48 48 46 42 42
9 7 7 6 6 5 4 3 3 2 3 7 7 4 2 4 6 4 3 4 4 2 5 7 7 8 12 14 12 8 6 4 2 3 3 3 3 3 4 5 6 9 11 14 16 18 20 22 24 25 25 26 27 27 28 28 29 30 31 32 33 34 35 35 36 37 37 38 38 37 37 38 38 39 39 39 40 40 40 39 40 42 44 46 48 49 49 51 53 51 51 50 49 50 48 41 41
8 5 5 4 4 4 4 4 3 1 5 6 5 2 3 4 6 4 5 6 4 3 4 7 4 6 10 12 10 7 4 2 2 3 2 2 3 4 5 5 6 7 8 10 13 15 17 19 20 22 22 23 23 24 25 26 27 27 28 28 29 30 31 32 33 33 33 34 34 34 35 36 37 38 39 39 40 40 40 39 40 40 41 42 42 43 44 47 53 54 52 53 55 55 46 38 38
6 5 6 4 2 3 3 3 0 3 6 4 3 1 3 6 8 8 11 9 6 7 6 5 3 4 7 7 6 6 4 3 3 4 3 2 3 4 4 5 6 6 7 9 10 12 13 15 16 17 18 18 20 21 22 23 23 24 24 25 26 26 27 28 28 28 29 29 30 31 33 34 35 36 37 38 38 38 38 38 39 40 41 40 40 43 44 43 43 45 49 55 58 52 41 37 38
4 5 5 4 3 1 3 4 2 4 5 3 3 2 3 4 4 9 14 8 4 5 5 4 3 1 4 2 4 5 4 4 4 5 4 3 4 5 5 4 4 5 7 9 9 10 11 12 14 14 14 15 17 18 19 20 20 20 21 22 22 23 23 23 23 24 25 26 27 29 30 31 33 33 34 34 34 34 35 36 37 39 40 40 40 45 48 43 38 40 46 52 53 48 41 38 37
4 4 6 5 5 5 4 4 3 4 3 3 4 2 3 2 2 6 11 10 7 7 6 4 6 3 1 1 3 4 4 5 6 7 7 6 6 6 6 6 4 4 6 9 11 12 13 13 14 14 13 14 16 17 18 18 18 18 19 19 19 20 20 20 21 22 23 24 25 26 27 28 29 29 30 30 30 30 31 32 34 35 38 40 42 44 47 45 39 42 48 49 49 46 40 35 36
2 3 5 3 5 5 2 3 5 3 1 3 2 3 5 4 5 9 9 10 10 7 5 5 6 4 3 2 4 4 4 7 8 9 9 8 8 8 8 8 7 5 6 8 12 14 16 16 17 17 16 15 16 17 17 16 17 17 18 18 18 18 19 19 19 19 20 21 21 22 23 23 24 25 26 27 28 28 29 29 31 32 33 38 44 45 47 47 43 43 46 47 48 46 39 36 40
2 2 3 5 4 7 4 2 0 3 2 4 2 4 5 3 6 9 5 7 9 5 4 6 6 5 2 2 5 5 6 8 9 9 9 9 10 10 11 11 11 10 9 8 10 14 18 20 20 21 20 19 18 17 17 16 16 17 17 17 18 18 17 17 16 16 17 17 19 19 19 20 21 22 24 25 26 27 28 28 29 31 31 35 42 47 48 47 43 43 44 47 48 45 41 43 46
5 3 6 3 2 4 4 2 3 3 3 5 1 5 5 2 4 6 5 2 7 5 5 2 4 4 2 4 4 4 7 9 8 9 10 11 12 13 14 14 15 16 15 14 13 12 15 18 22 24 25 24 20 18 17 17 17 17 17 17 16 16 16 16 15 15 15 16 16 16 17 18 19 21 22 24 25 26 27 28 28 29 30 32 38 44 48 47 46 45 45 47 48 46 47 51 51
5 4 4 4 2 1 2 2 2 1 3 5 4 5 4 4 6 4 3 4 8 5 5 4 4 4 4 6 6 7 9 8 9 10 10 12 13 14 15 17 18 18 18 19 19 20 20 19 20 23 27 27 24 21 20 19 18 17 17 16 16 16 16 16 15 15 15 15 14 15 16 17 18 20 22 23 24 25 26 27 27 27 29 31 33 38 44 47 47 46 45 46 47 47 50 52 50
3 2 3 3 2 4 3 3 3 3 3 3 4 4 4 6 6 6 7 9 8 4 2 2 2 2 4 7 9 10 9 7 8 9 9 10 12 13 14 17 20 20 20 20 21 23 24 24 23 22 24 27 26 24 23 20 18 18 17 17 17 17 17 16 16 15 15 14 14 15 16 17 18 20 22 23 24 26 27 27 27 27 27 27 27 30 35 40 43 44 42 41 42 44 47 47 45
3 3 4 2 1 2 2 1 2 4 4 3 3 5 6 5 4 8 10 9 6 2 3 5 2 2 6 9 11 10 7 7 7 9 10 11 13 13 15 19 23 24 24 22 22 23 26 28 27 24 22 23 25 25 23 21 19 18 18 19 18 18 18 17 16 16 15 14 15 16 17 18 20 21 22 23 25 27 28 27 26 27 27 26 25 26 29 33 37 39 38 38 39 41 43 43 42
6 6 7 7 5 4 3 3 1 2 3 4 3 5 8 5 4 6 7 6 6 7 7 5 3 4 8 11 11 8 8 10 12 15 16 17 17 17 21 25 28 28 28 26 24 25 28 30 30 28 25 21 22 24 22 22 21 21 21 21 20 19 19 18 17 17 16 15 17 18 19 20 22 23 24 24 25 27 28 28 27 27 27 28 28 28 29 32 35 37 37 38 39 39 40 41 39
Wind_Direction
228 234 256 273 274 236 242 180 104 357 73 101 51 120 134 187 156 120 142 121 78 62 77 83 83 101 110 107 119 109 87 147 181 149 158 149 147 157 156 155 158 160 161 157 157 155 152 149 146 144 139 136 126 115 100 85 70 64 62 61 61 67 74 76 78 78 77 79 87 89 92 96 97 97 97 104 112 111 113 131 144 147 143 133 130 123 116 117 117 112 108 105 101 100 97 92 84
228 234 260 272 270 228 212 106 91 348 56 91 290 140 133 360 104 144 180 153 135 127 97 89 92 97 102 104 104 86 53 20 184 141 131 140 150 159 156 154 156 157 158 156 155 154 155 151 147 143 140 135 127 119 105 93 79 69 67 64 64 69 76 77 77 79 78 78 84 88 91 95 98 99 99 104 109 112 111 124 143 152 153 132 119 116 118 119 116 114 111 108 105 103 99 95 87
227 236 265 267 260 191 153 71 82 83 78 122 256 264 127 100 145 194 194 143 131 125 109 99 96 96 105 92 63 78 67 91 137 135 135 148 156 157 157 153 155 157 153 154 153 153 156 153 148 143 142 136 129 124 110 101 86 74 70 67 67 69 74 78 79 80 79 78 82 86 89 92 98 101 105 111 115 122 122 121 126 133 143 130 116 114 117 116 115 115 113 112 109 108 105 101 95
227 232 253 247 242 124 87 57 120 116 118 165 190 271 214 144 170 212 159 134 133 131 126 111 82 81 115 104 90 98 118 134 141 142 145 155 159 156 155 154 158 157 149 150 150 151 155 153 148 147 146 140 137 133 120 111 96 81 76 71 69 70 73 75 76 77 76 76 78 83 87 87 96 102 105 111 114 127 131 122 117 121 125 117 114 114 113 112 113 115 115 115 114 113 112 110 106
233 233 237 234 258 89 86 71 94 105 160 178 149 247 235 168 169 186 142 135 143 141 139 122 89 99 104 108 113 117 145 150 152 152 151 154 160 159 155 155 162 159 152 149 148 151 156 157 156 157 154 149 149 148 136 121 106 90 81 77 73 73 73 74 73 75 76 77 76 81 87 86 97 105 104 107 110 120 124 115 111 118 117 112 114 116 114 114 115 116 118 120 120 118 117 116 111
230 232 236 201 62 79 92 80 90 102 207 166 141 224 217 190 168 153 135 130 138 140 141 133 132 128 97 92 112 138 145 153 161 159 154 155 161 160 156 160 164 162 158 152 150 153 157 163 165 165 163 159 159 159 150 133 116 98 88 81 77 75 73 73 73 73 76 78 78 79 84 88 97 101 101 108 112 116 115 107 104 109 114 116 117 118 117 117 119 120 124 125 124 124 121 118 112
220 221 211 112 66 41 91 117 140 168 226 166 155 179 194 197 165 142 129 124 120 131 142 144 143 129 98 110 118 139 149 164 167 163 158 157 161 160 160 165 167 165 163 159 155 155 159 164 167 170 170 164 164 167 156 140 126 107 96 86 81 78 74 72 70 71 73 75 78 79 80 87 94 92 93 97 102 109 106 103 107 112 116 120 121 121 121 120 123 126 129 130 130 130 127 125 118
208 176 116 109 51 31 95 113 176 176 92 163 158 163 177 177 161 142 134 142 139 138 137 148 147 119 129 154 138 156 161 168 168 166 162 159 160 160 164 170 170 168 167 164 160 161 163 164 167 173 173 167 166 167 157 147 137 118 106 94 87 82 77 74 71 70 71 73 76 78 81 87 91 89 88 86 94 103 103 104 110 119 122 123 126 126 126 127 130 133 135 136 137 136 134 132 128
185 132 85 97 79 43 81 63 30 189 109 145 147 165 172 166 157 141 131 139 149 148 143 158 160 126 166 162 134 157 162 166 168 169 167 163 163 162 168 173 173 171 169 169 167 168 168 168 170 174 176 172 168 166 159 156 150 132 118 105 92 84 79 76 73 71 71 72 73 76 79 85 87 85 88 89 97 105 109 112 112 120 127 128 132 132 131 134 137 140 141 142 142 142 141 138 135
174 145 127 85 82 66 77 95 121 161 187 181 170 169 166 165 156 139 137 138 149 147 146 163 163 140 155 146 132 156 164 168 169 172 174 168 168 168 169 172 176 176 172 172 173 172 175 174 172 176 180 177 172 168 164 163 161 144 127 118 104 91 83 78 76 73 73 72 72 73 75 79 82 81 88 95 101 110 115 118 117 124 131 133 137 137 138 141 142 145 147 148 149 150 149 145 138
171 62 114 82 75 107 157 183 216 223 187 204 183 170 164 161 148 134 134 138 157 150 145 152 147 139 136 138 149 163 167 173 177 177 176 173 177 177 173 169 174 181 177 176 177 176 181 180 177 179 182 183 179 172 170 172 171 157 137 131 120 103 91 84 81 77 77 75 75 74 75 79 81 82 85 93 100 109 117 120 124 132 136 138 141 142 144 146 147 150 154 155 156 157 154 150 141
112 324 78 93 123 161 178 153 180 231 230 174 175 179 166 154 141 140 145 147 171 160 156 163 154 144 117 141 163 165 170 176 181 179 175 176 184 185 179 170 170 180 180 180 181 180 185 186 183 181 183 187 186 182 181 181 180 171 150 144 139 120 103 93 87 83 81 77 77 75 75 77 80 86 86 92 98 108 117 123 131 137 140 143 145 147 150 149 150 154 157 159 158 156 151 143 138
123 180 85 98 182 132 134 136 177 109 331 210 178 172 163 158 153 159 157 152 170 161 162 172 164 154 103 157 162 168 174 176 178 177 176 180 187 188 182 172 171 180 181 184 186 185 189 191 190 185 186 189 191 191 189 190 190 185 169 159 157 143 120 108 99 94 91 83 80 76 75 77 80 86 90 98 103 111 119 124 135 142 145 148 148 152 153 151 153 157 158 158 155 151 141 131 131
109 140 102 120 87 108 138 127 182 140 221 242 188 158 155 159 165 164 155 149 174 157 142 159 169 166 124 151 170 178 176 177 179 177 177 182 188 189 185 177 176 182 185 188 189 190 191 193 195 192 192 194 197 197 196 199 200 195 187 176 171 165 145 131 120 108 105 97 88 82 78 78 80 85 91 99 104 112 120 125 136 143 147 150 151 154 155 154 156 158 158 155 150 143 132 126 129
135 20 96 108 51 100 169 151 161 150 198 228 178 158 136 128 163 170 160 154 180 158 138 151 170 193 179 172 191 184 177 179 181 178 177 178 185 189 188 184 183 187 189 190 191 193 193 193 196 198 199 199 201 203 203 202 204 202 197 192 185 183 172 153 144 127 116 108 98 91 83 76 78 81 87 96 104 111 120 127 135 142 148 151 152 155 156 158 159 159 158 151 145 139 134 132 134
164 31 75 81 75 135 173 163 136 133 210 206 166 157 125 106 150 169 169 163 162 159 155 156 170 214 191 182 190 174 171 178 181 179 177 176 183 189 190 189 191 195 194 193 195 195 196 197 199 201 202 202 204 205 207 206 205 205 202 202 196 195 193 177 166 154 136 122 111 104 94 86 81 82 89 100 112 119 125 133 140 144 150 153 152 156 160 162 163 162 157 149 145 144 146 146 144
155 66 66 69 170 158 177 177 166 162 206 209 171 161 137 110 144 151 161 163 155 158 170 164 169 173 183 185 162 163 165 174 179 180 179 179 185 187 188 191 196 201 198 197 199 200 199 200 202 205 204 204 205 206 209 209 207 206 207 208 203 202 202 198 188 181 175 153 134 124 113 106 97 93 99 107 125 137 141 143 148 149 154 158 156 160 166 166 166 163 157 151 149 151 156 156 155
143 107 93 155 196 193 185 188 200 165 158 188 182 170 152 143 153 141 136 149 148 148 163 161 163 153 159 167 155 162 164 169 176 181 182 182 187 189 190 194 199 203 201 199 202 204 202 202 204 206 207 206 206 208 210 211 211 210 212 213 211 210 209 209 204 199 197 186 170 153 138 131 119 116 116 121 137 149 160 161 159 157 160 164 163 166 169 171 169 165 160 156 155 156 157 158 163
130 105 103 204 210 200 213 194 203 183 164 175 177 175 169 167 163 150 141 153 147 139 146 158 169 162 157 159 159 167 167 169 176 181 185 187 191 196 197 199 202 206 205 204 205 206 205 204 205 206 208 209 209 210 211 213 214 214 217 218 217 216 216 216 213 211 207 203 199 187 174 160 147 149 148 146 152 160 171 173 170 167 170 170 169 171 174 177 175 171 166 163 163 159 156 160 169
155 100 110 233 215 195 355 81 211 225 174 164 168 176 177 178 171 166 165 164 162 169 170 170 181 180 172 167 169 172 172 175 179 183 188 192 196 202 205 206 208 211 211 210 209 208 207 206 207 207 208 211 213 213 214 216 216 218 220 221 220 219 220 219 218 219 215 213 211 206 201 186 175 176 176 174 169 170 178 181 177 174 177 178 177 178 181 185 184 180 175 172 171 164 160 163 170
159 118 162 217 188 155 13 43 360 195 169 164 165 167 184 189 179 180 163 146 226 214 198 204 207 195 183 176 177 179 179 181 184 188 192 196 200 205 211 216 219 221 218 216 214 213 211 209 210 209 209 211 214 215 217 219 220 221 222 223 223 222 222 221 221 222 222 221 219 215 213 206 196 193 191 191 185 177 179 186 186 181 182 183 184 187 189 194 193 188 185 182 180 173 168 166 165
106 111 196 169 155 150 147 67 99 166 163 160 156 158 183 178 180 189 171 161 227 221 215 226 224 210 198 190 186 185 187 188 189 193 197 201 205 208 214 218 222 223 223 222 220 219 218 215 214 212 212 213 214 217 219 222 224 225 226 226 225 224 223 223 224 225 226 226 226 222 219 218 210 203 198 199 197 190 185 188 195 194 191 188 188 193 194 198 200 197 194 192 191 183 174 169 166
115 256 260 138 164 159 152 136 144 172 162 150 155 166 171 162 183 199 191 200 215 219 225 229 230 225 214 203 194 191 193 195 196 198 201 205 208 212 215 218 223 224 227 229 227 225 223 221 218 216 216 216 217 218 220 222 225 228 230 230 229 228 225 224 225 227 229 229 230 230 225 225 224 215 205 202 206 205 197 192 199 206 204 200 198 200 201 203 205 204 202 201 200 193 183 175 171
123 178 224 124 144 141 146 145 140 169 166 154 158 163 170 170 183 201 211 220 213 202 193 201 221 225 216 208 204 203 201 200 202 203 206 210 213 216 219 222 225 227 230 232 232 230 227 226 223 221 219 219 220 220 220 222 225 227 229 231 231 230 228 227 227 228 230 231 232 234 233 229 228 224 214 208 211 214 212 205 204 209 213 213 211 210 209 209 211 210 209 208 207 204 196 188 183
108 152 190 136 118 133 137 149 142 155 160 153 157 162 180 186 186 218 226 222 209 205 188 174 197 214 217 215 213 211 207 208 208 208 209 213 217 219 222 224 225 227 230 233 235 235 232 231 228 227 225 223 223 223 224 223 224 226 227 231 231 230 229 228 229 230 232 233 233 234 236 235 232 228 222 216 215 219 222 219 213 211 217 221 221 221 217 215 216 216 215 212 213 212 211 204 195
176 149 163 152 128 135 132 157 155 151 158 153 166 178 187 191 249 257 239 230 215 209 207 205 203 208 213 215 218 217 213 213 211 211 212 214 216 219 221 223 226 229 232 233 235 237 236 235 233 232 230 228 227 226 227 227 226 227 229 231 232 232 231 230 230 231 233 235 236 235 235 238 239 235 229 223 221 224 227 228 225 219 219 225 229 229 224 223 221 222 222 218 216 217 219 216 208
160 136 133 131 134 146 138 159 157 154 166 170 186 216 259 201 180 260 247 229 214 211 212 217 220 219 215 213 216 218 218 216 214 215 214 214 216 220 221 222 227 230 232 233 234 236 236 236 236 236 234 232 230 230 230 230 230 231 232 232 232 234 234 233 232 231 232 237 241 239 236 236 238 237 234 229 226 229 232 233 232 229 227 228 232 232 229 228 224 225 227 225 223 221 222 222 217
143 129 105 63 85 150 171 156 158 158 152 180 174 131 301 75 173 249 247 209 207 212 212 217 221 224 222 216 214 215 218 217 218 219 217 219 222 225 226 228 230 230 231 234 235 234 235 236 237 237 236 233 233 234 233 232 233 235 235 234 233 235 236 236 236 232 230 236 242 244 242 239 237 236 235 235 232 232 237 238 237 235 234 233 232 233 232 230 225 224 226 227 226 225 225 225 223
135 122 99 358 13 25 227 170 167 173 150 175 125 32 288 226 223 238 228 192 219 217 215 217 220 225 224 221 219 218 221 220 220 224 227 231 235 236 237 240 241 237 237 238 236 235 236 238 237 237 237 235 234 235 236 236 236 236 237 237 235 235 236 237 238 235 232 234 239 244 246 244 242 239 236 238 238 236 237 239 241 239 238 236 234 233 232 231 227 223 224 227 227 227 227 226 225
130 97 101 26 14 350 258 175 170 171 166 179 126 293 272 249 236 237 238 247 246 227 218 216 217 224 225 224 224 226 229 228 228 233 236 238 239 241 243 245 244 244 244 239 236 237 238 238 238 237 237 237 236 236 237 238 238 238 238 239 238 237 237 238 239 239 236 234 237 242 244 245 246 245 240 238 238 238 237 238 241 242 241 238 236 234 233 233 230 227 227 228 228 229 230 229 230
122 77 71 61 86 286 291 157 155 151 199 190 115 180 260 276 263 255 258 252 238 226 221 215 217 221 225 228 229 235 238 237 241 243 242 242 242 242 244 244 243 244 243 239 239 239 238 238 238 238 237 238 238 238 239 239 240 240 240 241 240 239 239 239 240 240 239 237 238 240 242 243 244 247 245 242 240 240 239 239 240 241 242 240 240 237 235 235 233 232 231 231 230 230 231 231 232
48 100 316 348 140 259 305 183 165 157 199 164 106 199 265 282 286 311 281 233 214 219 222 216 219 221 225 230 234 242 246 246 249 249 247 245 244 244 244 244 242 242 241 240 241 240 238 238 238 239 239 239 239 239 241 241 241 241 241 242 242 242 242 242 242 241 241 240 239 239 239 241 242 244 246 245 244 244 244 243 243 244 245 245 244 241 238 238 236 234 234 235 234 233 233 232 232
3 102 196 272 153 255 312 276 195 165 149 111 116 207 275 281 258 13 39 194 202 217 226 221 223 227 229 234 239 245 250 250 250 249 247 245 243 243 244 243 242 242 242 242 240 240 240 239 238 239 240 241 241 240 241 242 242 242 242 242 243 243 243 245 246 245 243 242 241 240 238 239 240 241 243 243 243 246 248 247 246 246 249 251 250 247 243 240 239 237 236 236 237 237 237 237 235
302 39 155 230 176 173 274 285 300 94 130 234 109 204 254 263 260 276 308 241 229 231 236 233 229 233 237 241 246 249 251 252 250 249 247 246 247 246 246 246 245 244 244 243 242 242 242 242 242 242 242 243 243 242 241 242 242 242 242 241 242 243 243 245 247 248 247 245 244 244 240 238 238 239 241 242 242 245 247 249 249 247 248 252 252 251 249 244 239 240 239 238 238 238 239 240 240
190 185 157 236 198 174 230 241 289 47 91 247 186 238 258 266 277 276 272 273 267 257 256 256 252 250 252 253 253 254 255 256 257 256 254 253 253 253 252 252 251 249 246 244 243 242 242 243 243 244 243 243 244 243 242 242 242 240 239 238 239 241 242 244 245 246 247 247 247 246 243 238 235 237 239 241 242 243 244 245 247 249 248 250 251 248 248 246 239 237 239 239 238 239 240 241 242
167 174 146 158 179 226 239 240 266 116 103 265 235 236 261 270 281 279 274 276 269 263 264 262 261 260 259 258 258 258 257 259 264 264 260 256 256 257 259 259 258 254 250 246 245 243 242 241 241 242 242 242 243 242 241 240 239 237 235 234 236 238 240 241 243 245 246 247 248 249 247 243 238 236 235 238 241 241 243 243 245 248 245 247 252 246 246 251 246 237 235 236 236 237 237 238 239
135 124 107 138 166 236 253 262 291 111 133 264 246 245 265 266 270 270 273 279 270 257 258 258 259 260 260 259 260 260 259 261 266 266 262 259 259 260 260 260 258 255 251 248 245 244 243 242 241 240 240 241 240 240 239 238 237 236 235 236 238 240 240 240 241 243 245 246 248 248 247 246 245 241 236 236 238 240 242 243 244 245 242 245 250 250 250 254 251 243 237 236 235 235 236 237 238
98 118 112 94 155 222 249 253 291 61 131 270 315 302 271 259 263 265 266 269 257 248 245 251 256 257 259 260 260 261 261 264 265 264 263 262 262 262 261 258 254 253 251 249 249 247 245 244 243 242 241 241 241 241 240 239 240 240 242 244 245 244 243 243 244 246 247 247 248 247 246 244 243 244 243 238 235 237 240 243 244 244 246 245 243 248 251 246 245 245 241 238 235 234 237 239 239
84 114 120 100 191 244 299 301 315 25 112 274 340 325 276 264 260 262 257 245 250 254 249 253 258 260 261 262 262 264 265 267 267 265 264 265 265 264 262 258 255 254 252 251 251 250 248 246 244 243 242 242 242 242 241 242 243 243 244 246 246 246 246 247 247 248 248 248 249 248 248 246 241 240 243 242 237 236 240 244 245 246 249 244 239 247 249 240 238 243 245 243 238 233 232 236 238
86 109 129 202 248 157 290 301 322 5 67 276 325 307 280 284 282 269 260 246 256 267 261 258 260 260 264 266 266 267 268 269 270 270 269 267 267 265 262 260 258 255 252 249 248 248 248 248 246 244 242 241 241 242 244 245 245 245 244 244 245 246 247 247 247 247 247 247 248 248 248 248 245 241 240 240 240 240 243 245 246 248 247 243 241 248 248 239 236 244 249 247 241 234 230 232 236
29 128 142 176 208 166 187 304 346 360 14 24 9 325 288 311 328 290 280 253 259 273 270 264 263 263 266 268 267 266 264 266 271 276 276 273 270 267 264 262 260 257 254 252 250 249 251 252 251 247 244 242 241 243 246 247 247 246 244 243 243 243 244 244 244 245 246 246 246 247 247 246 247 247 244 244 244 244 244 245 246 247 244 242 244 248 247 241 240 249 252 249 245 240 234 234 236
316 225 168 167 164 154 174 3 37 32 346 340 30 360 289 311 317 276 298 334 292 290 290 281 282 279 268 264 267 266 264 266 272 277 280 279 276 271 264 259 257 257 257 256 255 254 255 256 256 252 249 247 246 247 248 248 249 247 245 244 243 243 243 243 244 245 246 247 248 248 248 247 247 246 244 246 247 244 241 242 244 244 243 243 246 247 247 244 246 249 248 247 250 245 238 237 237
257 236 164 145 127 120 135 75 60 77 259 298 58 108 265 304 297 265 290 332 311 304 295 284 284 284 275 270 271 270 270 273 275 277 280 281 278 273 265 257 254 256 258 258 256 255 255 256 257 256 254 252 252 252 251 251 250 249 248 247 246 246 247 248 249 250 249 251 252 251 251 249 248 244 239 238 240 241 243 246 249 249 249 249 249 249 247 246 249 248 242 248 256 248 239 239 240
228 225 130 122 119 130 140 109 106 213 246 323 20 118 238 291 270 269 302 326 311 303 291 285 290 297 293 285 281 278 276 278 279 278 277 277 276 275 271 263 257 257 258 257 255 255 256 257 259 258 257 256 255 255 255 254 253 252 251 249 250 250 251 253 253 253 253 254 254 254 254 252 250 248 245 242 240 241 242 245 247 248 249 249 249 251 248 246 250 247 240 250 259 248 239 243 245
237 192 125 127 130 132 118 101 104 12 16 314 311 129 198 272 273 301 339 319 298 293 286 293 312 324 330 330 4 57 74 258 279 280 274 277 281 282 278 268 260 256 256 256 257 258 258 259 259 258 257 257 256 256 256 256 255 255 254 252 252 253 253 254 254 254 255 255 256 256 256 255 254 252 251 249 247 245 243 243 243 243 245 246 248 250 246 243 246 244 241 251 258 247 239 245 249
168 132 95 76 71 80 78 91 109 36 11 258 250 190 195 268 286 312 340 279 262 273 281 292 320 348 49 82 85 88 88 88 25 317 298 302 309 306 291 270 260 256 254 255 256 256 256 257 257 257 257 257 257 256 256 255 255 254 254 253 254 255 255 255 254 254 254 255 256 256 256 256 256 255 254 253 252 251 248 246 245 244 244 245 247 248 246 244 243 242 246 253 257 250 243 248 255
128 97 62 48 31 35 42 58 88 61 289 254 241 220 184 272 281 258 220 222 212 251 307 310 342 39 82 88 82 77 74 75 42 360 349 357 7 351 325 297 275 261 257 255 254 253 254 255 256 257 257 256 256 255 254 254 253 253 253 254 255 256 257 256 256 255 255 256 256 256 256 256 256 256 255 255 255 254 252 251 250 250 248 247 247 246 245 246 246 248 252 253 254 250 243 248 257
103 80 74 65 354 9 20 3 41 155 254 262 256 227 151 222 262 254 243 253 225 204 288 292 320 63 86 86 74 58 58 62 25 29 54 53 23 355 340 324 305 284 271 263 259 257 255 255 256 257 256 254 254 253 253 252 252 253 254 255 257 258 258 258 258 258 258 259 259 259 258 257 257 257 256 256 256 256 256 256 255 255 255 253 250 248 247 247 246 248 251 251 250 245 240 247 255
75 88 93 84 338 1 352 307 313 221 244 271 278 230 191 226 249 254 260 264 226 213 246 253 223 95 83 77 52 35 41 31 29 66 79 47 10 355 347 333 318 304 288 273 264 261 259 257 256 256 254 253 253 253 253 254 255 256 257 258 259 260 260 259 260 261 260 260 261 261 260 259 259 258 258 258 258 259 259 260 260 258 258 254 249 251 251 248 246 246 249 252 249 242 243 253 258
126 135 129 131 143 145 266 266 278 261 260 289 289 272 265 270 267 243 249 253 197 224 278 253 211 96 69 58 15 14 24 36 49 68 66 45 29 18 5 350 320 297 281 269 264 262 262 262 259 260 259 256 256 257 257 258 258 258 259 260 260 260 260 259 259 260 261 261 261 262 262 261 262 261 262 262 263 262 261 261 261 260 258 250 243 246 245 243 247 249 251 253 247 242 249 258 261
178 153 136 153 161 164 212 222 218 248 276 299 294 270 205 225 308 243 249 269 263 268 287 242 213 210 211 294 355 9 24 64 81 80 77 71 54 39 24 13 350 309 276 264 265 266 268 271 272 272 271 268 266 265 263 261 260 260 258 258 258 256 256 256 256 258 259 260 261 262 264 264 265 265 265 265 264 263 260 258 257 257 254 246 239 239 239 240 249 251 249 248 244 242 250 260 264
228 119 113 179 187 150 140 196 182 186 292 296 264 237 214 209 279 276 271 283 281 269 258 229 220 224 235 297 18 37 60 86 94 89 81 73 59 50 40 29 16 351 308 279 273 273 274 278 279 280 280 278 274 269 267 263 258 257 255 252 251 250 250 251 252 254 257 260 262 264 266 268 269 269 268 268 266 263 260 256 253 253 251 243 237 236 239 242 247 248 246 248 247 246 252 262 264
180 134 182 217 173 120 107 241 342 76 251 269 218 247 290 332 294 296 311 294 291 293 253 224 220 240 266 35 45 60 97 101 91 82 71 60 52 44 38 34 27 18 1 329 298 281 276 275 273 275 276 274 275 274 268 262 256 251 246 244 244 244 246 248 251 255 258 260 262 263 266 269 270 271 270 270 269 267 262 258 253 250 249 243 237 234 238 240 240 242 244 248 250 249 255 263 261
132 180 210 199 86 84 110 206 348 38 250 275 249 237 282 318 273 317 12 276 256 284 318 312 177 190 152 96 69 80 111 102 80 69 57 45 38 32 30 29 25 22 17 7 353 329 307 291 278 273 270 269 274 276 266 259 254 246 239 238 239 242 245 247 250 252 253 256 260 264 269 272 273 273 273 271 270 268 265 261 257 253 250 247 240 235 235 237 239 242 243 246 249 250 255 260 259
135 181 173 118 123 201 113 154 198 175 247 279 290 269 256 213 231 299 6 210 217 251 331 21 119 134 109 95 97 117 121 101 77 65 49 34 27 22 20 16 10 7 4 3 1 357 351 335 309 288 276 270 269 267 260 252 245 237 234 234 236 239 241 244 246 248 251 256 263 268 271 274 276 275 274 274 272 269 267 265 262 259 254 250 244 237 233 234 238 242 243 245 248 249 252 256 257
79 109 114 98 142 170 163 161 164 172 209 254 301 315 265 229 215 202 216 230 236 275 336 131 140 85 87 95 111 124 115 90 71 51 34 26 19 11 9 4 357 350 345 347 351 352 354 351 339 314 289 272 263 259 255 247 236 231 231 231 232 236 238 241 245 247 252 259 266 270 272 274 276 275 275 275 275 273 270 266 263 262 257 250 245 238 233 232 236 241 245 247 248 247 252 256 256
144 159 173 173 103 113 164 180 124 140 170 204 275 291 267 252 204 185 207 232 241 238 181 187 197 97 105 105 111 114 92 69 48 23 8 0 357 355 355 353 347 339 331 330 338 345 347 346 344 334 310 276 255 251 249 242 235 231 231 232 233 236 239 243 246 249 255 262 267 270 273 274 275 275 275 275 275 274 272 267 262 259 254 245 238 235 234 234 236 240 244 246 246 249 255 257 254
170 181 195 185 161 128 150 234 254 132 165 179 192 269 268 239 197 192 197 209 201 175 170 190 189 129 116 103 94 69 33 17 3 355 350 347 346 346 344 340 336 330 322 321 330 339 341 339 337 335 326 299 262 248 244 239 236 236 236 236 238 239 241 244 247 251 256 262 266 269 271 273 274 276 276 275 273 272 271 268 262 258 251 243 236 233 234 237 239 241 241 241 245 252 256 255 251